STARLINK-36658

Last updated on Sun Mar 15 2026 00:02:07 GMT+0000 (Coordinated Universal Time)

1 67846U 26033AB 26073.58335648 -.01938373 00000+0 -22714-1 0 9997 2 67846 42.9988 241.6305 0001235 278.2598 201.3125 15.63889800 5452

Satellite not in orbit